Вернуться в каталог

SPACEMOBILE-004

АктивенСвязьVLEO
NORAD 61049·PAYLOAD·🇺🇸 United States

Запущен Sep 12, 2024 с Cape Canaveral Space Force Station

Loading…

Ближайшие Пролёты (ближайшие 24 часа)

TLE

СвежийSource: CelesTrak SupGP

Эпоха: Sep 15, 2026, 05:11 UTC

1 61049C 24163E   26258.21617369 -.00270810  00000+0 -12202-1 0  2589
2 61049  52.9740 255.0028 0009094  58.0644 346.1874 15.20522604    11

Отслеживайте SPACEMOBILE-004 в реальном времени с AllMySat

Download on the App Store